Flag for Myanmar Weather past 2 weeks in Yangon, Myanmar

Now
86 °F

Clear.


Feels Like: 91 °F
Forecast: 80 / 100 °F
Wind: 12 mph from Southwest

Location: Rangoon Airport

Current Time: Apr 19, 2015 at 10:17:14 PM

Latest Report: Apr 19, 2015 at 9:30 PM


Visibility: 4 mi

Pressure: 29.83 "Hg

Humidity: 59%

Dew point: 70 °F

Location of YangonLocation

Historic Weather in Yangon — Graph

°F

Yangon temperature yesterday

Maximum temperature yesterday: 99 °F (at 1:00 PM)
Minimum temperature yesterday: 81 °F (at 4:30 AM)
Average temperature yesterday: 90 °F

Past Weeks' High & Low Weather Summary

 TemperatureHumidityPressure
High102 °F (Apr 8, 2:30 PM)100% (Apr 16, 6:00 AM)29.98 "Hg (Apr 16, 6:00 AM)
Low77 °F (Apr 5, 5:00 AM)21% (Apr 14, 6:30 AM)29.59 "Hg (Apr 9, 11:30 AM)
Average88 °F63%29.83 "Hg
* Reported Apr 4 9:00 PM — Apr 19 9:00 PM, Yangon, Weather by CustomWeather, © 2015

Note: Actual official high and low records may vary slightly from our data, if they occured in-between our weather recording intervals... More about our weather records

Advertising

Yangon weather history for previous 24 hours

 ConditionsComfort  
Time TempWeatherWind HumidityBarometerVisibility
9:00 PM
Sun, Apr 19
86 °FClear.12 mph59%29.83 "Hg4 mi
8:30 PM88 °FClear.12 mph59%29.83 "Hg4 mi
8:00 PM88 °FPassing clouds.6 mph59%29.80 "Hg4 mi
7:30 PM90 °FPassing clouds.12 mph55%29.80 "Hg4 mi
7:00 PM90 °FPassing clouds.6 mph55%29.80 "Hg5 mi
6:30 PM95 °FPassing clouds.8 mph41%29.77 "Hg5 mi
6:00 PM95 °FPassing clouds.8 mph41%29.77 "Hg5 mi
5:30 PM97 °FScattered clouds.7 mph42%29.77 "Hg5 mi
5:00 PM97 °FScattered clouds.7 mph42%29.74 "Hg6 mi
4:30 PM97 °FScattered clouds.5 mph42%29.74 "Hg6 mi
4:00 PM99 °FScattered clouds.9 mph39%29.74 "Hg6 mi
3:30 PM99 °FScattered clouds.5 mph39%29.77 "Hg6 mi
3:00 PM99 °FScattered clouds.5 mph39%29.77 "Hg6 mi
2:30 PM99 °FScattered clouds.6 mph39%29.77 "Hg6 mi
2:00 PM99 °FScattered clouds.8 mph39%29.80 "Hg6 mi
1:30 PM99 °FScattered clouds.6 mph39%29.83 "Hg6 mi
1:00 PM99 °FScattered clouds.3 mph39%29.83 "Hg6 mi
12:30 PM97 °FScattered clouds.8 mph42%29.86 "Hg6 mi
12:00 PM97 °FScattered clouds.6 mph42%29.86 "Hg6 mi
11:30 AM95 °FScattered clouds.3 mph47%29.86 "Hg6 mi
11:00 AM93 °FScattered clouds.6 mph47%29.89 "Hg6 mi
10:30 AM91 °FScattered clouds.6 mph59%29.89 "Hg5 mi
10:00 AM90 °FScattered clouds.6 mph67%29.89 "Hg4 mi
9:30 AM86 °FScattered clouds.6 mph75%29.89 "Hg4 mi
9:00 AM86 °FScattered clouds.6 mph70%29.89 "Hg4 mi
8:30 AM84 °FScattered clouds.3 mph84%29.89 "Hg4 mi
8:00 AM82 °FPassing clouds.3 mph84%29.86 "Hg4 mi
7:30 AM81 °FPassing clouds.3 mph94%29.86 "Hg4 mi
7:00 AM81 °FFog.3 mph94%29.83 "Hg3 mi
6:30 AM79 °FFog.3 mph100%29.80 "Hg2 mi
6:00 AM79 °FFog.3 mph94%29.80 "Hg3 mi
5:30 AM79 °FFog.3 mph94%29.77 "Hg3 mi
12:30 AM82 °FSnow. Overcast.6 mph74%29.83 "Hg4 mi
12:00 AM82 °FSnow. Overcast.6 mph74%29.83 "Hg4 mi
11:30 PM
Sat, Apr 18
84 °FSnow. Overcast.6 mph74%29.83 "Hg4 mi
10:30 PM86 °FSnow. Overcast.12 mph70%29.83 "Hg4 mi
10:00 PM86 °FSnow. Overcast.6 mph75%29.83 "Hg4 mi
Weather by CustomWeather, © 2015

See weather overviewHow to use our weather pages